Flag for Colombia Weather past 2 weeks in Bogota, Colombia

Now
70 °F

Partly sunny.


Feels Like: 70 °F
Forecast: 47 / 64 °F
Wind: 7 mph from Southeast

Location: Bogota / Eldorado

Current Time: Mar 26, 2015 at 3:12:52 PM

Latest Report: Mar 26, 2015 at 2:00 PM


Visibility: N/A

Pressure: 30.29 "Hg

Humidity: 38%

Dew point: 43 °F

Location of BogotaLocation

Historic Weather in Bogota — Graph

°F

Bogota temperature yesterday

Maximum temperature yesterday: 68 °F (at 11:00 AM)
Minimum temperature yesterday: 48 °F (at 12:00 AM)
Average temperature yesterday: 58 °F

Past Weeks' High & Low Weather Summary

 TemperatureHumidityPressure
High73 °F (Mar 14, 8:00 PM)100% (Mar 18, 5:00 AM)30.44 "Hg (Mar 18, 5:00 AM)
Low41 °F (Mar 22, 5:00 AM)36% (Mar 12, 1:00 PM)30.16 "Hg (Mar 13, 4:00 PM)
Average58 °F78%30.32 "Hg
* Reported Mar 11 2:00 PM — Mar 26 2:00 PM, Bogota, Weather by CustomWeather, © 2015

Note: Actual official high and low records may vary slightly from our data, if they occured in-between our weather recording intervals... More about our weather records

Advertising

Bogota weather history for previous 24 hours

 ConditionsComfort  
Time TempWeatherWind HumidityBarometerVisibility
2:00 PM
Thu, Mar 26
70 °FPartly sunny.7 mph38%30.29 "HgN/A
1:00 PM66 °FPartly sunny.8 mph37%30.32 "HgN/A
12:00 PM66 °FScattered clouds.8 mph49%30.36 "HgN/A
11:00 AM63 °FScattered clouds.9 mph56%30.39 "HgN/A
10:00 AM63 °FScattered clouds.7 mph52%30.40 "HgN/A
9:00 AM61 °FScattered clouds.2 mph63%30.40 "Hg6 mi
8:00 AM55 °FPartly sunny.9 mph88%30.40 "Hg4 mi
7:00 AM50 °FScattered clouds.5 mph100%30.36 "Hg4 mi
6:00 AM50 °FFog.2 mph94%30.35 "Hg3 mi
5:00 AM50 °FFog.2 mph94%30.33 "Hg4 mi
4:00 AM54 °FFog.5 mph88%30.32 "Hg4 mi
3:00 AM52 °FFog.2 mph94%30.33 "Hg4 mi
2:00 AM54 °FFog.2 mph88%30.25 "Hg4 mi
1:00 AM54 °FFog.2 mph94%30.36 "Hg4 mi
12:00 AM52 °FPassing clouds.5 mph94%30.38 "HgN/A
11:00 PM
Wed, Mar 25
54 °FPassing clouds.2 mph94%30.40 "HgN/A
10:00 PM55 °FPassing clouds.2 mph88%30.40 "Hg5 mi
9:00 PM55 °FPassing clouds.2 mph94%30.40 "Hg5 mi
8:00 PM57 °FPassing clouds.6 mph82%30.36 "Hg5 mi
7:00 PM57 °FPassing clouds.2 mph88%30.33 "Hg5 mi
6:00 PM59 °FScattered clouds.7 mph82%30.31 "Hg5 mi
5:00 PM63 °FScattered clouds.6 mph73%30.28 "Hg5 mi
4:00 PM63 °FScattered showers. Partly sunny.8 mph73%30.28 "Hg5 mi
3:00 PM61 °FThunderstorms. Partly sunny.10 mph77%30.29 "Hg2 mi
Weather by CustomWeather, © 2015

See weather overviewHow to use our weather pages